Regional Weather Roundup
Issued by NWS

Home | Current Version | Previous Version | Text Only | Print | Product List | Glossary On
Versions: 1 2 3 4 5 6 7 8 9 10 11 12 13 14 15 16 17 18 19 20 21 22 23 24 25 26 27 28 29 30 31 32 33 34 35 36 37 38 39 40 41 42 43 44 45 46 47 48 49 50
000
ASUS43 KDTX 020910
RWRMI
MICHIGAN HOURLY REGIONAL WEATHER ROUNDUP
NATIONAL WEATHER SERVICE DETROIT/PONTIAC MI
500 AM EDT WED SEP 02 2015

NOTE: "FAIR" INDICATES FEW OR NO CLOUDS BELOW 12,000 FEET WITH NO
SIGNIFICANT WEATHER AND/OR OBSTRUCTION TO VISIBILITY.

MIZ047>049-052>055-059>063-066>070-074>076-081>083-021000-
SOUTHEAST LOWER MICHIGAN

CITY           SKY/WX    TMP DP  RH WIND       PRES   REMARKS
ADRIAN         CLEAR     68  67  96 W3        30.07S FOG
ALMA           PTCLDY    70  69  98 S5        30.02F FOG
ANN ARBOR      FOG       64  64 100 SW3       30.05S VSB 1/4
BAD AXE        CLEAR     66  65  98 S3        30.03S FOG
DETROIT CITY   PTCLDY    74  68  81 W5        30.04S
DETROIT        CLEAR     71  67  87 S6        30.05S
FLINT          CLEAR     70  66  87 SW3       30.03F
GROSSE ILE     CLEAR     72  68  88 CALM      30.04S
HILLSDALE      CLEAR     72  71  97 W5        30.07S
HOWELL         CLEAR     70  68  95 CALM      30.05S FOG

CITY           SKY/WX    TMP DP  RH WIND       PRES   REMARKS
JACKSON        CLEAR     69  67  93 W5        30.06S FOG
LAMBERTVILLE   CLEAR     69  65  90 CALM      30.07S
LANSING        CLEAR     72  68  87 SW3       30.04S
LAPEER         FOG       63  63 100 CALM      30.04S VSB 1/2
MASON          CLEAR     69  66  88 CALM      30.05S
MONROE         CLEAR     69  67  92 CALM      30.05S
MT. CLEMENS    PTCLDY    70  68  94 SW3       30.02S FOG
PONTIAC        CLEAR     68  66  93 CALM      30.04F FOG
PORT HOPE        N/A     71  68  90 SW5       29.99F
PORT HURON     FOG       64  64 100 CALM      30.04R VSB 1/4
TRI CITIES     CLEAR     72  68  87 SW6       30.01F FOG
MIDLAND        FAIR      69  69  97 CALM      30.00S FOG
TROY           CLEAR     73  69  90 CALM      30.06S
SAGINAW HB     CLEAR     70  68  94 S3        30.01S FOG
$$
MIZ043>046-050>051-056>058-064>065-071>073-077>080-021000-
SOUTHWEST LOWER MICHIGAN

CITY           SKY/WX    TMP DP  RH WIND       PRES   REMARKS
BATTLE CREEK   PTCLDY    71  68  90 S3        30.05F
BENTON HARBOR  CLEAR     72  68  87 S3        30.03S
BIG RAPIDS     FOG       68  68  98 CALM      30.00F VSB 3/4
COLDWATER      CLEAR     69  68  97 SW3       30.06F
FREMONT        FOG       69  69 100 CALM      30.00S VSB 3/4
HOLLAND        MOCLDY    76  70  82 SW10      30.02S
GRAND RAPIDS   PTCLDY    73  71  93 SW8       30.02S
IONIA          HVY RAIN  71  71  99 CALM      30.03R
KALAMAZOO      CLEAR     70  67  90 S6        30.05S
LUDINGTON      CLEAR     76  73  88 SW6       29.98F
MARSHALL       CLEAR     68  66  96 CALM      30.05F FOG
MOUNT PLEASANT PTCLDY    74  71  91 SW3       30.00F
MUSKEGON       MOCLDY    75  70  84 SW12      30.00R
SOUTH HAVEN    CLEAR     73  68  86 SW6       30.03S
$$
MIZ016>042-021000-
NORTHERN LOWER MICHIGAN

CITY           SKY/WX    TMP DP  RH WIND       PRES   REMARKS
ALPENA         PTCLDY    70  67  90 SW3       29.98S FOG
BEAVER ISLAND  PTCLDY    70  68  93 SW7       29.96R
BELLAIRE       FOG       67  66  94 CALM      29.97S VSB 1/4
CADILLAC       FOG       66  65  95 CALM      30.01F VSB 1/2
CHARLEVOIX     PTCLDY    73  71  91 SE3       29.98S
FRANKFORT      MOCLDY    74  70  87 CALM      29.96S
GAYLORD        MOCLDY    70  70 100 S3        30.00S FOG
GRAYLING         N/A     62  62  97 CALM      30.01S FOG
HARBOR SPRINGS MOCLDY    69  68  96 CALM      29.96S
HOUGHTON LAKE  PTCLDY    70  69  97 SW5       30.01F FOG
MANISTEE       PTCLDY    68  64  88 E3        29.98S VSB 1
OSCODA         CLEAR     69  68  98 SW5       29.98S FOG
PELLSTON       PTCLDY    68  67  96 CALM      29.96S FOG
ROGERS CITY    PTCLDY    72  69  89 SW7       29.97S
TRAVERSE CITY  CLEAR     74  69  85 VRB3      29.95F
$$
MIZ007>008-015-021000-
EASTERN UPPER MICHIGAN

CITY           SKY/WX    TMP DP  RH WIND       PRES   REMARKS
KINROSS        CLOUDY    68  66  94 CALM      29.96S VSB<1/4
MACKINAC ISLAN PTCLDY    67  66  96 W6        29.96R FOG
NEWBERRY       MOCLDY    65  65  99 CALM      29.95S FOG
S. S. MARIE    CLOUDY    68  66  93 S3        29.95S FOG
MUNISING         N/A     67  64  90 CALM      29.93F
$$
MIZ004>006-011>014-085-021000-
CENTRAL UPPER MICHIGAN

CITY           SKY/WX    TMP DP  RH WIND       PRES   REMARKS
MANISTIQUE     FOG       62  61  97 CALM      29.94S VSB<1/4
ESCANABA       PTCLDY    63  61  94 CALM      29.93S
MENOMINEE      MOCLDY    70  66  88 CALM      29.93S VSB 1
SAWYER-GWINN   PTCLDY    67  65  91 CALM      29.96S
$$
MIZ001>003-009>011-084-021000-
WESTERN UPPER MICHIGAN

CITY           SKY/WX    TMP DP  RH WIND       PRES   REMARKS
IRON MOUNTAIN  MOCLDY    65  64  97 CALM      29.96R FOG
HOUGHTON       CLEAR     59  58  96 NW3       29.95S
IRONWOOD         N/A     64  64 100 CALM      29.93S VSB 1/2
$$

ABBREVIATIONS USED IN REMARKS
   TC - TEMPERATURE IN CELSIUS
  WCI - WIND CHILL INDEX
   HX - HEAT INDEX
  VSB - VISIBILITY



USA.gov is the U.S. government's official web portal to all federal, state and local government web resources and services.